Home   Weather   Jastrzębie Zdrój   Past weeks

Flag for Poland Past Weather in Jastrzębie Zdrój, Poland — Yesterday and Last 2 Weeks

Now
60 °F

Fog.


Feels Like: 60 °F
Forecast: 56 / 63 °F
Wind: N/A

Location: Ostrava / Mosnov

Current Time: Aug 20, 2017 at 12:25:59 am

Latest Report: Aug 19, 2017 at 11:00 pm


Visibility: 2 mi

Pressure: 30.11 "Hg

Humidity: 97%

Dew Point: 60 °F

Location of Jastrzębie ZdrójLocation

Past Weather in Jastrzębie Zdrój — Graph

°F

Jastrzębie Zdrój Temperature Yesterday

Maximum temperature yesterday: 79 °F (at 2:00 am)
Minimum temperature yesterday: 60 °F (at 10:00 pm)
Average temperature yesterday: 69 °F

High & Low Weather Summary for the Past Weeks

 TemperatureHumidityPressure
High92 °F (Aug 10, 5:00 pm)97% (Aug 12, 1:00 am)30.23 "Hg (Aug 12, 1:00 am)
Low49 °F (Aug 8, 5:00 am)32% (Aug 5, 5:00 pm)29.72 "Hg (Aug 11, 7:00 pm)
Average70 °F67%30.05 "Hg
* Reported Aug 4 11:00 pm — Aug 19 11:00 pm, Jastrzębie Zdrój. Weather by CustomWeather, © 2017

Note: Actual official high and low records may vary slightly from our data, if they occured in-between our weather recording intervals... More about our weather records

Advertising

Jastrzębie Zdrój Weather History for the Previous 24 Hours

Scroll right to see more
 ConditionsComfort  
Time TempWeatherWind HumidityBarometerVisibility
11:00 pm
Sat, Aug 19
60 °FFog.N/A97%30.11 "Hg2 mi
10:00 pm60 °FFog.2 mph96%30.11 "Hg3 mi
9:00 pm62 °FFog.2 mph94%30.09 "Hg4 mi
8:00 pm63 °FFog.N/A93%30.09 "Hg4 mi
7:00 pm64 °FOvercast.2 mph91%30.09 "Hg6 mi
6:00 pm64 °FLight rain. Overcast.2 mph92%30.09 "Hg6 mi
5:00 pm65 °FOvercast.N/A86%30.09 "Hg11 mi
4:00 pm65 °FOvercast.2 mph89%30.08 "Hg11 mi
3:00 pm64 °FLight rain. Low clouds.2 mph92%30.08 "Hg7 mi
2:00 pm65 °FLight rain. Overcast.3 mph87%30.10 "Hg4 mi
1:00 pm69 °FOvercast.3 mph71%30.07 "Hg12 mi
12:00 pm69 °FOvercast.6 mph68%30.05 "Hg19 mi
11:00 am71 °FOvercast.5 mph62%30.04 "Hg19 mi
10:00 am71 °FOvercast.5 mph64%30.03 "Hg19 mi
9:00 am70 °FOvercast.5 mph69%30.01 "Hg19 mi
8:00 am69 °FOvercast.7 mph70%29.99 "Hg19 mi
7:00 am71 °FOvercast.7 mph63%29.95 "Hg19 mi
6:00 am74 °FPartly sunny.7 mph52%29.91 "Hg16 mi
5:00 am76 °FPassing clouds.7 mph47%29.88 "Hg16 mi
4:00 am76 °FPassing clouds.5 mph45%29.87 "Hg16 mi
3:00 am78 °FPassing clouds.6 mph42%29.86 "Hg16 mi
2:00 am79 °FPassing clouds.7 mph41%29.87 "Hg16 mi
1:00 am77 °FClear.3 mph47%29.89 "Hg16 mi
12:00 am71 °FClear.3 mph62%29.90 "Hg16 mi
Weather by CustomWeather, © 2017

See weather overviewHow to use our weather pages